Content
SEND FEEDBACK

Daily
Averages
Monthly
Summary
United States of America

FORT TOTTEN, NORTH DAKOTA


Home > North America > United States > North Dakota
Elevation: 1450 feet     Latitude: 48 07N     Longitude: 098 52W

WEATHER
 
SELECT A DAY
Number of Records: 460,335;   Date Range: 1/1/95 - 7/20/14
 
SHARE

PRINT THIS DATA

[ ← Previous Day ]
WEATHER ALMANAC - JANUARY 31, 2013
[ Next Day → ]
[ °C ]   °F
Weather ElementAverageHighLow
Temperature-16.2 °F-14.8 °F (3:15 am)-20.2 °F (11:55 pm)
Dewpoint-12.2 °F (1:15 am)-29.2 °F (10:55 am)
Humidity65.4 %92 % (2:15 am)48 % (4:15 pm)
Barometer30.14 in30.22 in (12:15 pm)29.95 in (12:35 am)
Wind Speed15.5 mph20.7 mph (10:55 am)
Wind Gust21.9 mph (6:55 am)
Weather ElementAverage
Visibility8.5 mi
Wind DirectionWNW (304.9 °)

Weather ElementTotal
Precipitation---
Heating Degree Days82.5 (Base 65)
Averaged from 63 records on January 31, 2013
WEATHER CONDITIONS BREAKOUT
WIND DIRECTION BREAKOUT
WEATHER BY HOUR - JANUARY 31, 2013
[ °C ]   °F
Local TimeTemperatureDewpointHumidityBarometerVisibilityWind DirectionWind SpeedGust SpeedPrecipitationEventsConditions
12:35 AM-16.6 °F-27.4 °F58 %29.95 in10.0 miNNW (330°)16.1 mphMostly Cloudy
12:55 AM-16.6 °F-20.2 °F84 %29.95 in10.0 miNW (320°)16.1 mphPartly Cloudy
1:15 AM-16.6 °F0.0 °F29.96 in10.0 miNW (320°)15.0 mphClear
1:35 AM-16.6 °F-20.2 °F84 %29.97 in10.0 miNW (320°)15.0 mphClear
1:55 AM-16.6 °F-27.4 °F58 %29.98 in6.0 miNW (320°)15.0 mphPartly Cloudy
2:15 AM-16.6 °F-18.4 °F92 %29.98 in7.0 miNW (320°)16.1 mphMostly Cloudy
2:35 AM-16.6 °F0.0 °F29.99 in10.0 miNW (310°)16.1 mphMostly Cloudy
2:55 AM-16.6 °F0.0 °F30.00 in9.0 miNW (310°)13.8 mphMostly Cloudy
3:15 AM-14.8 °F0.0 °F30.01 in5.0 miNW (310°)17.3 mphOvercast
3:35 AM-14.8 °F0.0 °F30.01 in5.0 miNW (310°)16.1 mphOvercast
3:55 AM-14.8 °F0.0 °F30.02 in5.0 miNW (310°)15.0 mphMostly Cloudy
4:15 AM-16.6 °F0.0 °F30.03 in5.0 miNW (310°)16.1 mphMostly Cloudy
4:35 AM-16.6 °F0.0 °F30.04 in10.0 miNW (320°)16.1 mphMostly Cloudy
4:55 AM-16.6 °F0.0 °F30.05 in6.0 miNW (320°)17.3 mphMostly Cloudy
5:15 AM-16.6 °F0.0 °F30.06 in9.0 miNW (310°)17.3 mphMostly Cloudy
5:35 AM-16.6 °F0.0 °F30.07 in6.0 miNW (310°)13.8 mphMostly Cloudy
5:55 AM-14.8 °F0.0 °F30.07 in5.0 miNW (320°)17.3 mphMostly Cloudy
6:15 AM-14.8 °F0.0 °F30.09 in5.0 miNW (320°)18.4 mphMostly Cloudy
6:35 AM-14.8 °F0.0 °F30.09 in5.0 miNW (310°)17.3 mphOvercast
6:55 AM-14.8 °F0.0 °F30.10 in5.0 miNW (320°)17.3 mph21.9 mphOvercast
7:15 AM-14.8 °F0.0 °F30.12 in7.0 miNW (310°)15.0 mphOvercast
7:35 AM-16.6 °F0.0 °F30.12 in9.0 miNW (310°)15.0 mphScattered Clouds
7:55 AM-16.6 °F0.0 °F30.13 in10.0 miNW (310°)16.1 mphClear
8:15 AM-16.6 °F0.0 °F30.14 in8.0 miNW (310°)15.0 mphPartly Cloudy
9:15 AM-16.6 °F0.0 °F30.16 in10.0 miWNW (300°)16.1 mphClear
9:35 AM-16.6 °F0.0 °F30.17 in10.0 miNW (310°)17.3 mphClear
9:55 AM-16.6 °F0.0 °F30.18 in9.0 miWNW (300°)17.3 mphClear
10:15 AM-16.6 °F0.0 °F30.19 in10.0 miNW (310°)17.3 mphClear
10:35 AM-16.6 °F0.0 °F30.19 in8.0 miNW (310°)18.4 mphClear
10:55 AM-16.6 °F-29.2 °F53 %30.20 in4.0 miNW (310°)20.7 mphClear
11:15 AM-16.6 °F-29.2 °F53 %30.21 in7.0 miNW (310°)17.3 mphClear
11:35 AM-16.6 °F-27.4 °F58 %30.21 in7.0 miNW (310°)19.6 mphClear
11:55 AM-16.6 °F-27.4 °F58 %30.21 in10.0 miNW (310°)17.3 mphClear
12:15 PM-14.8 °F-27.4 °F53 %30.22 in10.0 miWNW (300°)16.1 mphClear
12:35 PM-14.8 °F-27.4 °F53 %30.22 in8.0 miWNW (300°)19.6 mphClear
12:55 PM-16.6 °F-27.4 °F58 %30.22 in10.0 miWNW (300°)18.4 mphClear
1:15 PM-14.8 °F-25.6 °F58 %30.22 in10.0 miNW (310°)17.3 mphClear
1:35 PM-14.8 °F-25.6 °F58 %30.21 in7.0 miNW (310°)17.3 mphClear
1:55 PM-14.8 °F-25.6 °F58 %30.21 in9.0 miWNW (300°)18.4 mphClear
2:15 PM-14.8 °F-25.6 °F58 %30.21 in5.0 miWNW (300°)19.6 mphClear
2:35 PM-14.8 °F-25.6 °F58 %30.21 in8.0 miWNW (300°)18.4 mphClear
2:55 PM-14.8 °F-25.6 °F58 %30.21 in7.0 miWNW (300°)19.6 mphClear
3:15 PM-14.8 °F-23.8 °F64 %30.21 in10.0 miWNW (290°)17.3 mphClear
3:35 PM-14.8 °F-27.4 °F53 %30.21 in7.0 miWNW (290°)18.4 mphClear
3:55 PM-14.8 °F-22.0 °F70 %30.20 in10.0 miWNW (290°)18.4 mphClear
4:15 PM-14.8 °F-29.2 °F48 %30.21 in10.0 miWNW (300°)18.4 mphClear
4:35 PM-14.8 °F-20.2 °F77 %30.21 in10.0 miWNW (290°)18.4 mphClear
4:55 PM-14.8 °F0.0 °F30.20 in10.0 miWNW (290°)16.1 mphClear
5:55 PM-16.6 °F-27.4 °F58 %30.21 in10.0 miWest (280°)9.2 mphClear
6:15 PM-16.6 °F-18.4 °F92 %30.21 in10.0 miWNW (290°)12.7 mphClear
6:35 PM-16.6 °F0.0 °F30.21 in10.0 miWNW (290°)15.0 mphClear
8:15 PM-16.6 °F0.0 °F30.20 in10.0 miWNW (300°)13.8 mphClear
8:35 PM-16.6 °F-20.2 °F84 %30.20 in10.0 miWNW (300°)16.1 mphClear
8:55 PM-16.6 °F0.0 °F30.19 in10.0 miWNW (290°)12.7 mphClear
9:15 PM-16.6 °F-25.6 °F64 %30.19 in10.0 miWNW (290°)11.5 mphClear
9:35 PM-16.6 °F-23.8 °F70 %30.19 in10.0 miWNW (300°)9.2 mphClear
9:55 PM-18.4 °F0.0 °F30.18 in10.0 miNW (310°)8.1 mphClear
10:15 PM-18.4 °F-20.2 °F91 %30.18 in10.0 miWNW (290°)8.1 mphClear
10:35 PM-18.4 °F0.0 °F30.17 in10.0 miWNW (300°)6.9 mphClear
10:55 PM-18.4 °F-23.8 °F76 %30.17 in10.0 miNW (310°)8.1 mphClear
11:15 PM-18.4 °F0.0 °F30.16 in10.0 miNW (310°)9.2 mphClear
11:35 PM-18.4 °F-25.6 °F70 %30.16 in10.0 miWest (280°)10.4 mphClear
11:55 PM-20.2 °F0.0 °F30.16 in10.0 miWest (270°)8.1 mphClear
Hourly data recorded from KDVL, located miles away from Fort Totten, North Dakota







STORIES FROM OUR PARTNERS